Find Starlink 34138

NORAD ID: 63971 Int'l Des: 2025-099 Owner: SPXS Country: US Constellation: starlink operational
LEOCIRCULAR

Live Position

Loading 3D Globe...

About Starlink 34138

Description loading...

Upcoming Passes

Passes for default location (London). Set your location on the main map for personalized predictions.

Altitude History

Loading altitude history...

Two-Line Element Set

1 63971U 25099V 26106.92123813 .00014689 00000-0 54201-3 0 9998
2 63971 43.0003 316.8126 0001670 272.4135 87.6525 15.27593948 53221
Epoch: Apr 16, 2026 • Age: 11 hours

Current Status

Altitude 482.9 km
Velocity 7.63 km/s
Sub-Earth Point 21.30°N, 5.26°W
Launch Date May 13, 2025
Age 0.9 years
Type internet

Technical Details

Classification Payload
Mass 575.00 kg
Dry Mass 530.00 kg
Total Mass 575.00 kg
Length 0.30 m
Diameter 4.10 m
Span 29.00 m
Shape Box + pan
Manufacturer SPXS
Bus Type Starlink V2MO
Phase Status In Orbit
Owner/State SPXS/US

Most Searched